"2006/01/01",119,119,119
"2006/01/02",119,119,119
"2006/01/03",120,120,119
"2006/01/04",120,120,119
"2006/01/05",120,120,120
"2006/01/06",120,120,120
"2006/01/07",120,120,120
"2006/01/08",120,121,120
"2006/01/09",121,121,120
"2006/01/10",121,121,121
"2006/01/11",121,122,121
"2006/01/12",122,122,122
"2006/01/13",122,122,122
"2006/01/14",124,131,122
"2006/01/15",133,135,131
"2006/01/16",136,137,135
"2006/01/17",133,136,132
"2006/01/18",129,132,127
"2006/01/19",124,127,122
"2006/01/20",123,123,122
"2006/01/21",125,127,123
"2006/01/22",127,127,126
"2006/01/23",126,127,126
"2006/01/24",126,127,123
"2006/01/25",120,123,119
"2006/01/26",119,119,118
"2006/01/27",119,120,118
"2006/01/28",120,120,119
"2006/01/29",120,120,120
"2006/01/30",120,121,120
"2006/01/31",121,122,121
"2006/02/01",124,130,122
"2006/02/02",131,133,130
"2006/02/03",134,135,133
"2006/02/04",135,136,135
"2006/02/05",136,136,135
"2006/02/06",135,136,132
"2006/02/07",128,132,127
"2006/02/08",127,127,127
"2006/02/09",127,127,127
"2006/02/10",128,128,127
"2006/02/11",128,129,128
"2006/02/12",129,130,127
"2006/02/13",129,129,127
"2006/02/14",129,129,129
"2006/02/15",130,130,129
"2006/02/16",131,132,130
"2006/02/17",132,132,132
"2006/02/18",132,132,132
"2006/02/19",132,132,132
"2006/02/20",133,136,132
"2006/02/21",136,137,136
"2006/02/22",137,138,137
"2006/02/23",138,139,137
"2006/02/24",139,139,138
"2006/02/25",139,139,138
"2006/02/26",139,145,137
"2006/02/27",139,141,138
"2006/02/28",136,138,136
"2006/03/01",138,144,136
"2006/03/02",144,145,143
"2006/03/03",145,146,142
"2006/03/04",140,142,136
"2006/03/05",133,136,129
"2006/03/06",127,129,127
"2006/03/07",128,129,127
"2006/03/08",128,129,128
"2006/03/09",129,129,129
"2006/03/10",130,130,129
"2006/03/11",130,130,130
"2006/03/12",130,131,129
"2006/03/13",131,132,131
"2006/03/14",131,131,130
"2006/03/15",129,131,125
"2006/03/16",123,125,121
"2006/03/17",123,129,118
"2006/03/18",117,118,117
"2006/03/19",118,119,117
"2006/03/20",118,119,117
"2006/03/21",117,118,117
"2006/03/22",118,120,118
"2006/03/23",122,122,120
"2006/03/24",122,122,122
"2006/03/25",122,122,122
"2006/03/26",122,122,122
"2006/03/27",123,123,122
"2006/03/28",123,123,123
"2006/03/29",123,124,121
"2006/03/30",122,123,121
"2006/03/31",122,123,121
"2006/04/01",122,122,121
"2006/04/02",124,131,122
"2006/04/03",125,128,123
"2006/04/04",124,125,124
"2006/04/05",126,128,125
"2006/04/06",127,128,123
"2006/04/07",119,123,118
"2006/04/08",117,118,117
"2006/04/09","*","*","*"
"2006/04/10",117,118,117
"2006/04/11",118,120,117
"2006/04/12",127,129,120
"2006/04/13",127,128,127
"2006/04/14",128,129,124
"2006/04/15",121,124,119
"2006/04/16",118,119,118
"2006/04/17",118,118,117
"2006/04/18",117,118,117
"2006/04/19",117,118,117
"2006/04/20",117,118,117
"2006/04/21",119,122,118
"2006/04/22",118,119,118
"2006/04/23",118,118,118
"2006/04/24",118,118,117
"2006/04/25",119,120,118
"2006/04/26",119,119,119
"2006/04/27",120,120,119
"2006/04/28",120,120,120
"2006/04/29",121,121,120
"2006/04/30",121,121,120
"2006/05/01",120,121,120
"2006/05/02",121,122,120
"2006/05/03",121,122,120
"2006/05/04",120,120,119
"2006/05/05",119,119,118
"2006/05/06",118,119,118
"2006/05/07",120,124,117
"2006/05/08",122,122,122
"2006/05/09",122,122,122
"2006/05/10",122,122,122
"2006/05/11",126,128,122
"2006/05/12",124,126,118
"2006/05/13",117,118,116
"2006/05/14",118,119,117
"2006/05/15",120,120,119
"2006/05/16",120,120,120
"2006/05/17",121,121,120
"2006/05/18",121,122,121
"2006/05/19",124,127,122
"2006/05/20",125,127,122
"2006/05/21",121,122,120
"2006/05/22",120,120,119
"2006/05/23",119,120,119
"2006/05/24",121,125,119
"2006/05/25",126,127,125
"2006/05/26",124,127,118
"2006/05/27",116,118,116
"2006/05/28",122,128,116
"2006/05/29",123,124,122
"2006/05/30",123,124,119
"2006/05/31",117,119,116
"2006/06/01",116,116,115
"2006/06/02",115,116,115
"2006/06/03",116,116,115
"2006/06/04",115,115,114
"2006/06/05",114,114,114
"2006/06/06",114,114,114
"2006/06/07",115,116,114
"2006/06/08",116,116,116
"2006/06/09",121,125,116
"2006/06/10",127,128,125
"2006/06/11",127,129,124
"2006/06/12",123,124,123
"2006/06/13",124,124,123
"2006/06/14",123,125,118
"2006/06/15",117,119,116
"2006/06/16",130,138,119
"2006/06/17",137,139,134
"2006/06/18",149,152,139
"2006/06/19",148,148,145
"2006/06/20",139,145,134
"2006/06/21",131,134,126
"2006/06/22",123,126,119
"2006/06/23",118,119,117
"2006/06/24",118,118,117
"2006/06/25",118,118,118
"2006/06/26",119,119,118
"2006/06/27",120,120,119
"2006/06/28",120,120,120
"2006/06/29",120,120,120
"2006/06/30",120,120,120
"2006/07/01",123,125,120
"2006/07/02",126,126,125
"2006/07/03",127,128,126
"2006/07/04",128,129,127
"2006/07/05",128,133,125
"2006/07/06",126,129,122
"2006/07/07",120,122,117
"2006/07/08",118,118,117
"2006/07/09",118,119,118
"2006/07/10",120,121,119
"2006/07/11",121,121,121
"2006/07/12",122,122,121
"2006/07/13",123,123,122
"2006/07/14",122,123,118
"2006/07/15",118,118,118
"2006/07/16",119,119,118
"2006/07/17",122,133,119
"2006/07/18",139,148,133
"2006/07/19",154,163,148
"2006/07/20",168,172,163
"2006/07/21",178,181,172
"2006/07/22",181,183,179
"2006/07/23",177,179,172
"2006/07/24",170,173,164
"2006/07/25",161,164,155
"2006/07/26",151,155,145
"2006/07/27",142,145,137
"2006/07/28",134,137,129
"2006/07/29",127,129,124
"2006/07/30",125,126,124
"2006/07/31",125,126,125
"2006/08/01",125,125,124
"2006/08/02",121,124,118
"2006/08/03",116,118,115
"2006/08/04",115,116,115
"2006/08/05",115,115,115
"2006/08/06",115,115,115
"2006/08/07",115,115,114
"2006/08/08",115,115,114
"2006/08/09",123,128,115
"2006/08/10",129,131,127
"2006/08/11",129,131,123
"2006/08/12",121,123,117
"2006/08/13",116,117,116
"2006/08/14",118,121,117
"2006/08/15",120,121,119
"2006/08/16",122,122,121
"2006/08/17",124,125,123
"2006/08/18",121,125,117
"2006/08/19",123,128,116
"2006/08/20",127,127,127
"2006/08/21",127,127,127
"2006/08/22",127,127,127
"2006/08/23",128,128,127
"2006/08/24",129,129,128
"2006/08/25",129,129,129
"2006/08/26",129,129,129
"2006/08/27",129,129,129
"2006/08/28",129,129,129
"2006/08/29",129,129,128
"2006/08/30",129,129,128
"2006/08/31",129,129,129
"2006/09/01",130,131,129
"2006/09/02",131,132,131
"2006/09/03",132,132,132
"2006/09/04",132,132,132
"2006/09/05",132,133,132
"2006/09/06",133,133,132
"2006/09/07",134,134,133
"2006/09/08",133,135,128
"2006/09/09",127,128,127
"2006/09/10",127,127,127
"2006/09/11",128,128,127
"2006/09/12",128,129,128
"2006/09/13",129,130,129
"2006/09/14",133,135,130
"2006/09/15",135,136,135
"2006/09/16",134,136,132
"2006/09/17",130,132,127
"2006/09/18",128,129,127
"2006/09/19",130,131,129
"2006/09/20",131,132,131
"2006/09/21",132,132,132
"2006/09/22",133,133,132
"2006/09/23",133,133,133
"2006/09/24",133,133,132
"2006/09/25",132,132,132
"2006/09/26",133,136,132
"2006/09/27",150,160,136
"2006/09/28",151,152,149
"2006/09/29",146,150,144
"2006/09/30",139,144,135
"2006/10/01",131,135,128
"2006/10/02",131,133,128
"2006/10/03",134,135,133
"2006/10/04",133,136,129
"2006/10/05",129,129,128
"2006/10/06",146,171,130
"2006/10/07",187,197,172
"2006/10/08",201,204,197
"2006/10/09",199,204,195
"2006/10/10",187,195,180
"2006/10/11",173,180,169
"2006/10/12",164,169,160
"2006/10/13",153,153,152
"2006/10/14","*","*","*"
"2006/10/15","*","*","*"
"2006/10/16","*","*","*"
"2006/10/17","*","*","*"
"2006/10/18","*","*","*"
"2006/10/19","*","*","*"
"2006/10/20","*","*","*"
"2006/10/21","*","*","*"
"2006/10/22","*","*","*"
"2006/10/23",147,148,145
"2006/10/24",161,174,148
"2006/10/25",176,179,174
"2006/10/26",179,180,177
"2006/10/27",173,179,169
"2006/10/28",162,169,158
"2006/10/29",154,158,150
"2006/10/30",146,150,142
"2006/10/31",138,142,134
"2006/11/01",131,134,129
"2006/11/02",129,129,129
"2006/11/03",130,130,129
"2006/11/04",131,131,130
"2006/11/05",131,132,131
"2006/11/06",132,133,132
"2006/11/07",133,134,132
"2006/11/08",134,134,132
"2006/11/09",134,134,134
"2006/11/10",135,135,135
"2006/11/11",136,137,135
"2006/11/12",132,137,128
"2006/11/13",129,129,128
"2006/11/14",129,130,129
"2006/11/15",130,131,129
"2006/11/16",131,132,131
"2006/11/17",132,133,132
"2006/11/18",133,133,132
"2006/11/19",134,137,133
"2006/11/20",147,150,137
"2006/11/21",147,150,146
"2006/11/22",143,147,141
"2006/11/23",136,141,134
"2006/11/24",130,134,129
"2006/11/25",130,130,129
"2006/11/26",130,131,130
"2006/11/27",135,138,131
"2006/11/28",139,140,138
"2006/11/29",137,140,135
"2006/11/30",133,135,131
"2006/12/01",132,133,132
"2006/12/02",133,134,133
"2006/12/03",134,135,134
"2006/12/04",135,136,135
"2006/12/05",136,136,135
"2006/12/06",133,135,132
"2006/12/07",130,132,130
"2006/12/08",129,130,128
"2006/12/09",129,130,129
"2006/12/10",130,131,130
"2006/12/11",131,132,131
"2006/12/12",133,133,132
"2006/12/13",134,134,133
"2006/12/14",135,137,134
"2006/12/15",139,140,138
"2006/12/16",133,138,132
"2006/12/17",133,133,132
"2006/12/18",134,135,133
"2006/12/19",135,135,135
"2006/12/20",136,136,135
"2006/12/21",137,137,136
"2006/12/22",134,136,132
"2006/12/23",130,132,130
"2006/12/24",128,130,128
"2006/12/25",128,129,128
"2006/12/26",139,180,128
"2006/12/27",174,182,168
"2006/12/28",190,192,182
"2006/12/29",191,192,186
"2006/12/30",180,186,176
"2006/12/31",174,176,172
